Location: Gälforsberget
(66.6500°N, 22.4167°E)
Time: 21:34:09
(UTC+00:00)

Cosmos 2333 Rocket - Pass Details

Date: 11 April 2026
Orbit: 842 x 861 km, 70.8° (Epoch: 16 May)

Event Time Altitude Azimuth Distance (km) Brightness Sun altitude
Rises 19:46:28 0° 237° (WSW) 3,402 5.5 -9.1°
Reaches altitude 10° 19:48:54 10° 238° (WSW) 2,467 4.7 -9.3°
Maximum altitude 19:54:35 85° 328° (NNW) 855 2.3 -9.6°
Drops below altitude 10° 20:00:18 10° 57° (ENE) 2,474 4.6 -10.0°
Sets 20:02:45 0° 58° (ENE) 3,412 5.3 -10.1°
